Tracking 22458 objects as of 3-Mar-2021
HD Live streaming from Space Station
objects crossing your sky now

CZ-2C R/B

Track CZ-2C R/B now!
10-day predictions


NORAD ID: 43521
Int'l Code: 2018-054D
Perigee: 482.0 km
Apogee: 596.5 km
Inclination: 35.2 °
Period: 95.3 minutes
Semi major axis: 6910 km
RCS: Unknown
Launch date: June 27, 2018
Source: People's Republic of China (PRC)
Launch site: Xichang Space Center, China (XSC)

Note: This is a ROCKET BODY
aabbcc
Your satellite tracking list
Your tracking list is empty




NASA's NSSDC Master Catalog

Two Line Element Set (TLE):
1 43521U 18054D   21061.20705140  .00000742  00000-0  41680-4 0  9998
2 43521  35.1549  31.1128 0082852 231.9647 127.3566 15.11334582148160
Source of the keplerian elements: AFSPC